Hourly Weather Roundup
Issued by NWS

Home | Current Version | Previous Version | Text Only | Print | Product List | Glossary On
Versions: 1 2 3 4 5 6 7 8 9 10 11 12 13 14 15 16 17 18 19 20 21 22 23 24 25 26 27 28 29 30 31 32 33 34 35 36 37 38 39 40 41 42 43 44 45 46 47 48 49 50
000
NZUS43 KILX 020810
HWRCRS

CRS HOURLY WEATHER ROUNDUP
NATIONAL WEATHER SERVICE, LINCOLN IL
300 AM CDT MON MAY 02 2016


CITY           SKY/WX    TMP DP  RH WIND       PRES   REMARKS
CHAMPAIGN      CLOUDY    50  47  89 NW9       29.99R
LAWRENCEVILLE  PTCLDY    56  52  86 N9        29.99R
PEORIA         CLOUDY    48  45  89 N3        30.04S
SPRINGFIELD    LGT RAIN  52  49  89 NW7       30.02S
$$


CITY           SKY/WX    TMP DP  RH WIND       PRES   REMARKS
BLOOMINGTON    CLOUDY    48  48 100 NW10      30.02R FOG
DECATUR        CLOUDY    51  46  83 NW9       30.00S
EFFINGHAM      MOCLDY    54  53  97 W5        30.02R
FLORA          PTCLDY    55  52  91 W5        30.00F
GALESBURG      CLOUDY    47  46  97 N7        30.05S
JACKSONVILLE   CLOUDY    51  48  89 NW9       30.04S
LACON          CLOUDY    47  46  93 N3        30.03S
LINCOLN        CLOUDY    50  48  93 N5        30.02R
LITCHFIELD     MOCLDY    49  47  92 NW8       30.02S

CITY           SKY/WX    TMP DP  RH WIND       PRES   REMARKS
MACOMB         CLOUDY    49  48  97 NW8       30.08S
MATTOON        CLOUDY    52  47  83 NW13      29.99R
MOLINE         CLOUDY    50  46  86 CALM      30.06R
OLNEY          CLEAR     52  52 100 NW5       29.99F
PARIS          CLOUDY    51  50  97 NW5       29.99R
PONTIAC        CLOUDY    49  49  97 N8        30.01R
QUINCY         CLOUDY    49  48  97 NW8       30.06F
RANTOUL        CLOUDY    50  48  93 NW12      29.98S FOG
ROBINSON       CLEAR     52  50  93 NW7       30.00S
TAYLORVILLE    CLOUDY    52  48  87 NW12      30.01S
TERRE HAUTE    CLOUDY    53  49  86 W9        29.97R
$$


CITY           SKY/WX    TMP DP  RH WIND       PRES   REMARKS
BURLINGTON     CLOUDY    49  48  97 N9        30.05F
CHICAGO        CLOUDY    45  41  86 NE13      30.01F
DES MOINES     CLOUDY    47  43  86 N5        30.11F
EVANSVILLE     PTCLDY    57  51  80 W5        29.99S
INDIANAPOLIS   MOCLDY    57  54  89 W8        29.90R
KANSAS CITY    CLOUDY    48  44  86 W7        30.13S
MILWAUKEE      CLOUDY    44  40  85 N8        30.07R
ST LOUIS       CLOUDY    54  47  77 NW12      30.05R
$$





USA.gov is the U.S. government's official web portal to all federal, state and local government web resources and services.